Theta_e
294 293 294 296 297 300 304 305 306 311 316 317 318 318 317 316 315 313 313 311 309 309 309 309 308 308 307 305 303 301 299 298 294 292 288 288 289 289 291 289 289 290 291
291 291 293 294 296 296 298 305 307 309 312 315 316 316 316 315 315 313 312 311 309 308 307 307 307 308 307 306 304 301 300 300 298 294 289 287 289 287 287 288 290 293 289
289 289 290 292 293 293 294 296 298 301 308 312 314 314 314 314 314 314 313 312 310 309 308 307 307 306 305 306 304 302 301 301 299 293 289 287 287 287 289 287 285 283 289
288 288 288 289 290 292 293 295 297 299 302 309 311 312 315 314 314 314 313 312 310 309 308 308 307 306 305 304 304 303 301 300 298 297 289 287 287 286 288 288 287 287 288
287 287 287 289 290 291 293 294 294 296 304 310 311 310 312 314 314 312 312 311 310 309 308 307 307 304 299 303 304 303 302 299 298 296 290 287 286 284 285 287 287 286 288
287 287 288 288 289 290 291 292 293 294 296 304 309 311 309 311 305 302 309 311 310 309 307 307 307 296 297 297 298 300 302 300 298 297 296 293 291 290 287 288 287 286 284
287 287 288 288 287 288 290 290 291 291 293 295 301 307 307 309 302 300 299 311 310 309 308 307 306 306 298 302 298 297 297 298 300 299 297 296 295 294 289 288 288 288 289
287 287 287 287 287 287 288 289 289 290 291 292 294 298 305 309 301 300 298 309 310 310 309 308 306 305 303 302 302 299 300 300 299 300 299 300 298 296 292 293 290 289 286
286 286 287 287 286 286 287 287 288 289 289 290 291 293 295 300 300 298 299 307 308 308 309 309 308 306 301 296 301 299 298 299 299 297 298 298 297 296 294 290 287 286 286
287 287 287 287 286 285 286 286 287 288 288 289 289 290 290 294 297 297 298 306 306 306 307 307 293 305 297 296 302 300 296 296 297 296 295 295 295 294 292 293 290 288 288
287 287 286 286 286 286 286 285 286 286 286 286 287 289 290 291 294 296 297 302 305 304 304 302 305 296 297 296 298 302 300 299 296 296 294 294 295 293 291 292 293 292 290
285 285 285 285 285 286 283 283 283 283 283 284 284 285 287 290 291 294 294 296 301 303 300 302 302 295 296 297 296 300 298 296 295 293 293 292 291 292 291 291 292 292 294
284 283 283 283 284 284 283 283 282 282 283 283 283 284 285 285 289 293 294 293 294 297 303 298 297 296 295 296 296 296 293 295 293 291 291 292 292 293 291 289 289 289 289
281 282 282 282 283 283 283 283 283 282 282 283 283 283 284 285 286 286 290 291 289 292 292 295 295 297 297 298 293 294 295 296 294 293 293 292 291 289 289 289 288 288 287
282 283 283 283 282 283 283 284 284 284 284 283 283 284 283 283 285 289 289 287 291 292 289 289 289 290 292 293 291 293 293 292 291 291 290 288 288 288 288 288 288 286 286
280 281 282 282 283 282 282 283 287 287 287 288 288 287 285 287 289 290 290 290 292 292 288 289 290 291 292 292 291 290 290 289 291 290 290 289 288 288 287 287 287 286 285
277 279 280 280 281 282 282 282 281 284 288 288 288 288 288 288 288 288 288 289 290 291 289 289 290 290 291 291 291 291 290 290 290 290 289 289 288 287 287 286 286 286 285
274 275 276 278 279 281 281 281 282 281 280 281 286 287 288 288 288 289 288 289 286 287 288 289 289 290 291 290 291 291 291 289 289 289 289 288 288 288 287 287 286 286 286
272 272 274 275 277 278 280 281 281 281 280 281 282 284 284 288 289 289 289 287 286 286 287 288 289 290 290 290 291 290 290 289 289 288 288 288 288 287 287 287 287 286 286
270 270 271 272 273 275 277 279 280 280 279 280 280 281 282 278 282 284 285 286 286 286 287 288 289 289 289 289 289 289 288 288 287 288 288 288 287 287 287 287 287 286 285
270 270 270 270 271 272 274 277 279 280 279 279 279 281 284 281 282 283 285 286 286 287 287 288 288 288 289 289 289 289 288 288 288 288 288 287 287 287 287 288 287 287 286
268 270 270 269 270 271 273 274 276 277 278 278 279 280 284 284 284 285 286 286 287 287 288 288 289 288 288 288 288 288 288 288 288 288 287 287 287 287 287 287 287 286 286
268 268 269 270 270 271 272 274 275 276 276 277 279 281 283 283 284 285 286 287 287 287 288 288 289 288 288 288 289 289 288 288 288 288 287 287 287 287 287 286 286 286 285
266 268 270 270 270 270 271 273 274 276 277 278 279 280 281 283 285 286 286 287 287 288 288 288 288 288 288 288 288 288 288 288 288 288 288 287 287 287 286 286 286 286 286
267 268 272 270 270 271 271 273 274 276 278 279 280 282 284 285 285 286 286 287 287 287 287 288 288 288 288 288 287 287 287 286 288 288 287 287 287 286 286 286 286 285 285
271 275 272 272 272 272 273 275 276 278 279 280 282 283 285 285 286 286 286 286 286 287 287 287 287 287 287 288 288 287 286 286 287 286 287 287 286 286 286 285 285 285 284
Wind_Speed
4 5 6 6 7 7 7 9 12 13 12 15 15 17 18 17 17 16 16 15 17 17 15 17 18 15 11 10 10 10 10 8 10 3 2 3 7 6 6 6 6 7 6
4 4 6 7 7 6 7 8 7 11 12 12 13 15 17 19 19 19 17 15 17 18 17 17 17 13 17 14 10 13 12 12 10 10 3 2 5 3 3 8 7 7 6
4 5 6 6 6 6 7 9 9 9 9 13 11 13 15 17 19 19 19 19 18 19 19 19 18 17 16 13 12 11 11 11 9 4 5 2 2 3 5 3 4 2 4
3 5 6 6 6 6 6 7 9 8 10 10 11 12 13 16 18 19 19 18 17 18 19 19 19 19 19 18 15 16 13 12 9 9 4 3 3 3 4 7 5 6 9
5 5 6 6 6 6 7 6 8 9 8 8 9 12 12 13 13 17 17 18 18 18 18 18 19 20 23 21 14 16 15 12 10 10 5 3 5 4 11 7 9 5 9
6 6 6 6 6 6 6 8 8 8 9 7 9 8 10 11 16 19 19 17 19 18 17 18 18 16 17 23 23 21 20 17 16 12 12 12 13 10 6 9 8 6 6
7 6 6 6 6 6 5 7 8 7 7 9 10 8 8 9 16 19 18 17 17 18 18 16 15 13 16 18 21 21 19 23 23 16 16 15 14 13 8 10 13 10 7
7 7 7 7 6 6 6 6 6 5 6 7 9 10 10 7 13 19 24 22 17 18 18 18 17 17 17 19 16 18 19 17 18 13 15 15 13 10 15 14 14 7 2
8 8 7 7 7 6 6 7 6 5 6 8 7 9 9 10 10 16 17 17 19 17 16 17 17 17 18 23 17 16 16 17 17 22 21 17 14 16 15 7 7 7 8
10 9 8 8 7 7 7 7 5 5 7 6 9 9 9 10 12 12 13 11 14 12 12 14 16 17 18 24 19 16 15 16 14 12 14 14 13 12 22 16 11 11 7
6 7 8 8 8 7 7 5 5 6 6 8 10 10 10 9 10 12 12 9 9 10 10 7 9 18 16 23 26 16 18 13 16 14 12 11 11 10 10 12 13 13 11
7 8 9 8 7 5 7 6 6 6 7 9 9 9 7 9 10 12 11 14 10 8 6 7 9 17 21 23 22 26 20 14 8 10 9 9 9 11 10 14 17 15 13
6 7 8 7 8 7 7 7 6 6 7 9 7 8 8 5 7 12 14 13 16 11 7 7 12 16 19 20 25 25 18 9 8 9 10 10 10 11 9 7 10 9 7
8 8 7 7 10 8 7 7 8 8 8 8 8 9 8 6 6 5 6 5 9 9 7 8 9 13 17 16 10 15 11 10 10 11 10 8 6 6 9 8 8 9 9
10 11 11 9 9 9 10 10 10 11 12 10 10 9 8 10 6 8 6 4 5 8 4 4 4 5 7 7 5 7 9 8 9 7 7 7 8 8 8 7 8 7 9
14 12 11 10 10 9 10 10 20 25 23 22 25 17 11 17 17 11 11 13 11 11 5 7 8 7 9 9 8 7 7 9 9 8 8 8 8 9 9 7 8 9 9
15 16 13 13 12 12 11 11 12 13 24 25 27 27 27 25 21 17 19 15 15 12 10 8 8 8 9 9 9 10 10 9 10 10 10 10 9 8 9 9 9 9 9
16 21 15 14 13 13 13 13 12 12 12 10 17 20 22 24 25 22 20 14 10 12 11 10 10 10 9 8 8 10 9 7 9 9 9 9 10 9 9 9 10 11 10
14 13 14 14 14 15 14 13 13 13 13 12 10 10 12 20 21 20 18 10 11 11 10 12 10 10 10 9 8 8 10 9 9 8 9 9 10 10 9 10 10 14 13
14 21 19 14 13 14 14 15 15 15 13 12 12 12 9 5 10 11 10 11 12 12 11 11 10 10 10 9 8 8 8 8 8 9 9 9 9 10 10 11 10 10 11
12 13 18 14 14 14 15 14 14 13 14 13 14 14 20 10 12 11 10 10 12 12 12 11 10 10 9 8 9 9 9 9 9 9 9 9 9 10 10 9 10 10 10
13 13 12 14 13 14 14 14 14 12 13 14 15 14 25 13 13 12 13 14 13 13 11 11 10 9 9 9 9 9 9 9 9 9 9 9 9 9 9 9 9 9 10
13 15 14 13 13 16 14 13 13 13 14 15 15 15 12 13 14 16 16 14 12 11 10 10 11 10 9 9 10 10 10 10 9 9 9 9 9 9 9 9 10 10 10
15 16 15 13 12 13 13 13 13 16 15 14 14 14 14 13 13 15 14 13 12 11 10 10 11 13 10 10 9 9 8 7 8 10 13 10 10 10 9 9 10 11 10
14 15 13 11 12 12 12 14 14 14 15 14 14 14 13 14 14 13 12 12 11 11 12 11 10 12 14 15 12 12 12 12 12 12 10 11 11 13 11 9 9 9 10
14 7 8 9 11 12 12 12 13 14 14 13 14 14 14 12 12 12 11 11 10 10 11 9 10 14 15 14 16 16 15 15 14 14 10 9 9 9 9 10 12 8 10
Wind_Direction
314 313 315 301 296 287 273 263 255 258 242 233 217 210 202 201 203 206 209 206 203 201 210 209 210 208 209 209 205 204 206 198 223 238 158 171 186 179 186 194 191 201 206
299 306 301 300 298 306 310 293 262 253 249 250 233 214 211 201 196 201 205 204 200 207 204 208 209 207 214 209 207 209 212 211 209 216 160 155 192 190 183 186 203 209 201
297 309 302 301 305 317 312 314 310 298 297 248 241 215 211 208 202 204 204 207 205 210 203 204 207 206 213 212 209 208 211 216 212 158 173 129 155 162 188 201 193 218 212
252 285 297 301 314 307 301 303 302 289 275 281 245 236 216 213 208 203 201 206 208 211 209 210 208 206 208 208 210 211 210 214 208 202 157 148 150 149 180 202 206 207 219
230 263 274 293 298 303 303 298 303 305 295 289 277 241 228 214 215 205 200 207 209 211 213 211 213 211 210 208 204 208 208 208 208 206 173 151 158 168 198 189 211 196 224
209 247 266 277 289 300 306 307 303 305 314 292 296 284 246 232 208 206 204 206 211 209 210 212 213 206 210 207 206 205 203 202 209 209 212 210 201 204 163 186 182 186 229
203 233 250 259 268 282 295 300 300 308 317 320 311 301 269 245 216 198 217 210 212 211 210 210 212 210 207 211 214 210 208 210 208 199 209 213 218 212 174 186 196 198 219
210 222 230 244 250 262 274 278 292 308 310 315 312 315 308 280 229 209 204 218 217 216 212 211 210 210 203 205 206 212 218 217 217 216 215 218 215 193 192 201 199 195 84
219 223 226 230 241 249 255 263 273 290 301 299 300 302 305 302 277 230 208 220 224 220 217 213 211 210 203 195 201 207 214 223 215 219 221 217 200 188 183 147 168 176 213
214 216 221 217 218 236 244 257 260 262 276 286 291 290 289 288 294 262 226 223 226 229 220 219 208 212 192 188 202 203 208 215 206 207 223 226 210 193 178 187 176 195 199
222 231 230 219 213 221 239 240 254 264 273 276 275 280 282 282 288 290 240 226 244 225 222 217 213 208 200 191 201 207 214 200 206 207 212 216 214 200 188 196 194 199 204
231 232 234 227 219 218 225 241 240 248 261 270 271 275 268 272 267 274 257 227 234 237 222 228 212 194 204 199 198 215 217 193 192 198 205 204 198 202 199 198 205 208 218
247 241 241 232 226 217 221 240 244 230 243 261 260 266 272 259 262 262 266 247 247 246 248 222 198 197 207 208 212 213 214 200 191 198 204 208 204 205 200 200 212 218 224
255 254 246 228 240 232 229 234 235 239 241 246 252 258 262 255 248 251 253 255 245 253 258 256 226 215 209 208 210 219 216 211 200 206 211 208 187 176 191 189 197 200 212
265 260 253 241 234 238 229 232 230 239 228 240 241 242 253 264 242 226 230 235 234 242 230 249 221 203 210 217 196 206 206 202 203 200 193 180 187 190 192 184 191 188 210
272 267 261 254 245 239 239 244 234 238 240 238 246 241 250 249 260 258 276 283 278 248 232 233 241 222 214 206 207 204 198 195 202 193 199 191 193 192 191 185 189 198 207
267 268 266 259 254 245 241 240 249 242 238 240 242 242 244 250 254 254 264 271 276 271 243 232 229 223 219 216 208 207 208 202 187 187 196 192 197 193 190 194 196 199 208
265 264 263 261 257 250 243 241 241 248 249 246 243 235 240 242 247 249 258 262 256 243 246 235 232 229 224 216 214 214 208 185 192 193 191 196 188 200 192 202 198 205 211
263 259 258 257 254 252 254 249 242 243 244 249 256 239 235 236 239 244 250 234 241 246 236 237 226 233 232 224 221 210 207 191 189 192 197 194 191 191 203 206 203 209 206
259 254 250 255 256 250 245 243 240 238 240 243 246 243 239 207 232 234 221 229 235 240 236 236 227 227 227 223 218 206 199 193 193 195 198 198 195 196 204 202 203 202 208
263 253 243 245 245 244 250 250 240 237 236 237 241 240 237 229 238 232 228 223 228 236 234 232 229 219 218 211 210 211 205 203 200 200 200 198 196 200 203 206 206 208 209
267 259 244 241 240 239 240 239 245 245 241 240 243 246 245 237 236 238 238 236 233 229 227 224 225 214 208 203 203 208 206 205 200 198 199 198 197 201 200 204 205 204 206
261 254 250 240 236 239 241 237 238 236 238 241 245 245 237 237 239 241 239 237 232 227 219 214 216 211 202 198 202 209 208 205 196 192 198 199 200 201 199 203 204 204 204
274 263 256 234 232 232 233 236 236 233 236 238 240 242 242 239 235 238 236 234 230 221 212 211 211 207 202 198 203 206 207 203 190 195 197 202 202 199 199 203 203 207 208
266 250 242 219 224 229 233 233 233 234 235 234 235 233 233 235 233 230 228 226 220 214 210 207 207 205 198 197 199 201 201 194 195 194 198 202 202 197 199 202 199 204 202
308 263 217 218 221 226 228 231 233 233 234 235 236 233 228 226 224 222 218 213 210 210 205 202 198 200 200 204 205 200 196 195 195 193 193 196 195 196 198 199 200 196 196